[[{"header":{"parameterUnit":"m.s-1","parameterCategory":1,"la1":30.2991,"la2":30.254,"lo1":-89.0895,"lo2":-89.0444,"dy":0.0017,"dx":0.0017,"nx":28,"ny":28,"refTime":"2024-03-26T09:00:00:Z","depth":0,"parameterNumber":2,"parameterNumberName":"U-component_of_WINDS"},"data":[0,0,0,0,0,0,0,0,0,0,0,0,0,0,0,0,0,0,0,0,0,0,0,0,0,0,0,0,0,0,0,0,0,0,0,0,0,0,0,0,0,0,0,0,0,0,0,0,0,0,0,0,0,0,0,0,0,0,-0.0626,-0.0625,0,-0.0581,-0.0581,-0.058,-0.0618,-0.062,-0.0621,-0.0623,-0.0575,-0.0573,-0.057,0,0,0,0,0,0,0,0,0,0,0,0,0,-0.0743,-0.074,-0.0626,-0.0625,-0.0625,-0.0581,-0.0581,-0.058,-0.0618,-0.062,-0.0622,-0.0623,-0.0576,-0.0573,-0.057,0,0,0,0,0,0,0,0,0,0,0,0,0,-0.0694,-0.074,-0.0626,-0.0638,-0.0639,-0.0581,-0.058,-0.058,-0.0617,-0.062,-0.0622,-0.0624,-0.0577,-0.0573,-0.0569,-0.0496,0,0,-0.0557,-0.0555,0,0,0,0,0,0,0,0,-0.0697,-0.069,-0.0637,-0.0637,-0.0638,-0.0608,-0.0604,-0.0552,-0.0617,-0.0625,-0.0623,-0.0626,-0.0584,-0.058,-0.0566,-0.0494,-0.0492,-0.0556,-0.0554,-0.0552,-0.0551,0,0,0,0,0,0,0,-0.07,-0.0692,-0.0608,-0.0636,-0.0637,-0.0646,-0.0642,-0.0595,-0.0592,-0.0625,-0.0628,-0.0622,-0.0585,-0.057,-0.0565,-0.0491,-0.0556,-0.0553,-0.055,-0.0549,-0.0358,-0.0356,0,0,0,0,0,0,-0.0703,-0.0695,-0.0609,-0.0607,-0.0674,-0.0642,-0.0637,-0.0615,-0.0593,-0.0591,-0.062,-0.0624,-0.0576,-0.057,-0.0563,-0.0477,-0.0552,-0.0548,-0.0546,-0.0361,-0.0357,-0.0355,0,0,0,0,0,0,-0.0705,-0.0695,-0.0611,-0.0651,-0.0641,-0.0637,-0.0612,-0.0613,-0.0598,-0.0589,-0.0588,-0.0605,-0.0577,-0.0569,-0.0513,-0.0476,-0.0546,-0.0543,-0.0364,-0.036,-0.0356,-0.0302,0,0,0,0,0,0,-0.0708,-0.0695,-0.0668,-0.065,-0.0639,-0.0561,-0.061,-0.061,-0.0591,-0.0596,-0.0575,-0.0574,-0.0578,-0.0519,-0.0509,-0.0471,-0.0539,-0.0367,-0.0362,-0.0357,-0.0307,-0.0297,-0.0288,0,0,0,0,0,-0.0712,-0.0654,-0.0666,-0.0656,-0.0605,-0.0559,-0.0553,-0.056,-0.0588,-0.056,-0.0554,-0.0574,-0.0482,-0.0513,-0.0502,-0.0462,-0.0369,-0.0363,-0.0358,-0.0312,-0.0299,-0.0289,0,0,0,0,0,0,-0.0666,-0.0652,-0.0665,-0.06,-0.058,-0.0566,-0.0531,-0.0546,-0.0518,-0.0524,-0.0534,-0.0529,-0.0469,-0.046,-0.0496,-0.0391,-0.043,-0.0421,-0.0399,-0.0387,-0.0377,-0.038,-0.0536,0,0,0,0,0,-0.0648,-0.0613,-0.0603,-0.0546,-0.0536,-0.0535,-0.0515,-0.0523,-0.0503,-0.0495,-0.0485,-0.0465,-0.0431,-0.0409,-0.0377,-0.0307,-0.0303,-0.0274,-0.0265,-0.0257,-0.0249,-0.0212,-0.0199,-0.0335,-0.0335,-0.0336,0,0,-0.0611,-0.0599,-0.0576,-0.0536,-0.0522,-0.0485,-0.0528,-0.0486,-0.0459,-0.0488,-0.0435,-0.0427,-0.0405,-0.0341,-0.0313,-0.0332,-0.0211,-0.0249,-0.0243,-0.024,-0.0204,-0.0191,-0.018,-0.0331,-0.0332,-0.0333,0,0,-0.0525,-0.0512,-0.0464,-0.0449,-0.0427,-0.0427,-0.0416,-0.0399,-0.0395,-0.0341,-0.0363,-0.033,-0.0272,-0.0255,-0.0239,-0.0147,-0.0165,-0.0137,-0.0086,-0.0049,-0.0039,-0.0029,0.0004,0.0016,-0.0129,-0.0129,-0.0129,0,-0.0481,-0.0426,-0.0436,-0.0394,-0.0376,-0.0401,-0.0352,-0.0337,-0.0306,-0.0293,-0.0315,-0.0243,-0.023,-0.0163,-0.0141,-0.0127,-0.0114,-0.0139,-0.004,-0.003,-0.0021,0.001,0.0023,-0.0126,-0.0126,-0.0127,-0.0127,0,-0.0374,-0.0336,-0.0299,-0.0269,-0.0247,-0.0201,-0.0204,-0.018,-0.0189,-0.0187,-0.0132,-0.0118,-0.0084,-0.0069,-0.0077,-0.0003,-0.0015,-0.0038,-0.0077,-0.0005,0.0025,0.0037,-0.0121,-0.0122,-0.0123,-0.0124,0,0,-0.0256,-0.0233,-0.0219,-0.0206,-0.0185,-0.0155,-0.0111,-0.0078,-0.0057,-0.0035,0.0002,0.0051,0.003,0.0048,0.0041,0.0073,0.0146,0.0046,0.0047,0.0065,0.0229,0.0246,0.026,0.0134,0.0136,0.0138,0.0227,0,-0.0168,-0.0091,-0.0099,-0.0026,0.0009,-0.0015,0.0024,0.0041,0.0045,0.0075,0.0079,0.0114,0.0083,0.0094,0.0125,0.013,0.0179,0.0124,0.0169,0.0171,0.0165,0.0276,0.0294,0.0378,0.0238,0.024,0.0242,0,-0.0056,-0.003,0.0047,0.0062,0.0077,0.0112,0.0141,0.017,0.019,0.019,0.021,0.0197,0.0242,0.0201,0.0263,0.0226,0.0244,0.0249,0.0252,0.0257,0.0211,0.0284,0.0404,0.0417,0.026,0.0258,0.0257,0,0.0023,0.0076,0.0129,0.0141,0.0161,0.0186,0.0195,0.0212,0.0232,0.0258,0.027,0.0301,0.0318,0.0342,0.0337,0.0308,0.0401,0.0359,0.0402,0.0403,0.0424,0.0423,0.055,0.0434,0.0434,0.0434,0.0434,0,0.0122,0.017,0.0165,0.0197,0.025,0.0241,0.0294,0.03,0.0315,0.0349,0.0329,0.0361,0.0354,0.0385,0.0382,0.0434,0.0442,0.0443,0.0442,0.0445,0.0445,0.0458,0.0452,0.0437,0.0437,0.0436,0.0435,0,0.0219,0.0217,0.0273,0.0287,0.0291,0.033,0.0342,0.0373,0.0374,0.0417,0.0426,0.0429,0.0465,0.0463,0.0504,0.0502,0.0566,0.0558,0.056,0.0558,0.0601,0.0597,0.0741,0.0759,0.0632,0.0633,0.0634,0,0.0282,0.0319,0.0336,0.0357,0.0368,0.0402,0.0422,0.0414,0.0435,0.046,0.0488,0.0522,0.055,0.0609,0.0614,0.0646,0.0638,0.0686,0.0643,0.0645,0.0639,0.0638,0.0641,0.0695,0.0697,0.0698,0.0699,0,0.0395,0.0392,0.0422,0.0451,0.0476,0.0498,0.0519,0.0537,0.0531,0.0557,0.0593,0.0614,0.0656,0.0691,0.072,0.073,0.0714,0.0712,0.0724,0.0728,0.0728,0.0729,0.0583,0.0709,0.0708,0.0707,0.0707,0.0706,0.0477,0.0509,0.0526,0.0559,0.0574,0.0594,0.0623,0.0628,0.0658,0.0691,0.0685,0.0726,0.0744,0.0782,0.0795,0.0827,0.081,0.0827,0.0831,0.0836,0.0841,0.0722,0.0833,0.0832,0.0832,0.0832,0.0832,0,0.059,0.0599,0.063,0.0659,0.0686,0.0667,0.0689,0.0713,0.0749,0.0767,0.0794,0.0836,0.0869,0.0877,0.0909,0.0934,0.0927,0.0942,0.0941,0.0943,0.0854,0.0841,0.0947,0.0947,0.0947,0.0947,0.0947,0.0947,0.0651,0.0703,0.0702,0.0761,0.077,0.081,0.0824,0.0842,0.0857,0.0904,0.0932,0.0937,0.0951,0.0983,0.1013,0.1015,0.1027,0.1046,0.1045,0.0961,0.095,0.0939,0.0926,0.1049,0.1049,0.1131,0.1132,0.1133]},{"header":{"parameterUnit":"m.s-1","parameterCategory":1,"la1":30.2991,"la2":30.254,"lo1":-89.0895,"lo2":-89.0444,"dy":0.0017,"dx":0.0017,"nx":28,"ny":28,"refTime":"2024-03-26T09:00:00:Z","depth":0,"parameterNumber":3,"parameterNumberName":"V-component_of_WINDS"},"data":[0,0,0,0,0,0,0,0,0,0,0,0,0,0,0,0,0,0,0,0,0,0,0,0,0,0,0,0,0,0,0,0,0,0,0,0,0,0,0,0,0,0,0,0,0,0,0,0,0,0,0,0,0,0,0,0,0,0,-0.3897,-0.3898,0,-0.4055,-0.4056,-0.4058,-0.4136,-0.4136,-0.4136,-0.4136,-0.4296,-0.43,-0.4305,0,0,0,0,0,0,0,0,0,0,0,0,0,-0.366,-0.3664,-0.3896,-0.3898,-0.39,-0.4054,-0.4056,-0.4059,-0.4136,-0.4136,-0.4136,-0.4136,-0.4295,-0.43,-0.4305,0,0,0,0,0,0,0,0,0,0,0,0,0,-0.3785,-0.3665,-0.3896,-0.3957,-0.3964,-0.4054,-0.4056,-0.4059,-0.4136,-0.4136,-0.4136,-0.4136,-0.4293,-0.4299,-0.4306,-0.4346,0,0,-0.4325,-0.4328,0,0,0,0,0,0,0,0,-0.3777,-0.3793,-0.3946,-0.3953,-0.3961,-0.4075,-0.4032,-0.4155,-0.4136,-0.4071,-0.4136,-0.4136,-0.4223,-0.4235,-0.4265,-0.4353,-0.436,-0.4326,-0.433,-0.4333,-0.4334,0,0,0,0,0,0,0,-0.3769,-0.3787,-0.3959,-0.3948,-0.3958,-0.3977,-0.3994,-0.4056,-0.4145,-0.4076,-0.4082,-0.41,-0.4227,-0.4258,-0.4269,-0.4362,-0.4326,-0.4331,-0.4335,-0.4338,-0.4492,-0.4492,0,0,0,0,0,0,-0.375,-0.3779,-0.3954,-0.3964,-0.3868,-0.3981,-0.4001,-0.4039,-0.4144,-0.416,-0.41,-0.4103,-0.4247,-0.4261,-0.4275,-0.4329,-0.4333,-0.4339,-0.4342,-0.4492,-0.4492,-0.4492,0,0,0,0,0,0,-0.3745,-0.3765,-0.3948,-0.3873,-0.3898,-0.3985,-0.4027,-0.4042,-0.4073,-0.4162,-0.4178,-0.4116,-0.4248,-0.4266,-0.4328,-0.4336,-0.4341,-0.4347,-0.4492,-0.4492,-0.4492,-0.4438,0,0,0,0,0,0,-0.3738,-0.3763,-0.3779,-0.3873,-0.3901,-0.3998,-0.4028,-0.4045,-0.4084,-0.409,-0.4181,-0.4196,-0.4249,-0.4318,-0.4334,-0.4345,-0.4352,-0.4491,-0.4492,-0.4492,-0.4439,-0.4436,-0.4433,0,0,0,0,0,-0.3729,-0.3757,-0.378,-0.38,-0.3924,-0.3998,-0.4015,-0.4075,-0.4085,-0.4102,-0.4159,-0.4193,-0.4332,-0.4323,-0.4342,-0.4355,-0.4491,-0.4492,-0.4492,-0.444,-0.4437,-0.4434,0,0,0,0,0,0,-0.3662,-0.3771,-0.3797,-0.3856,-0.3917,-0.4011,-0.4035,-0.4069,-0.4129,-0.4132,-0.4204,-0.4223,-0.4279,-0.4323,-0.4312,-0.44,-0.4415,-0.4419,-0.4369,-0.4366,-0.4363,-0.4352,-0.4358,0,0,0,0,0,-0.3654,-0.3706,-0.3798,-0.3841,-0.3871,-0.3947,-0.3982,-0.4023,-0.4089,-0.4116,-0.4177,-0.424,-0.4298,-0.4334,-0.4392,-0.4445,-0.4467,-0.4463,-0.4461,-0.4458,-0.4461,-0.4493,-0.4493,-0.4494,-0.4494,-0.4494,0,0,-0.3638,-0.3704,-0.3732,-0.3829,-0.3882,-0.3934,-0.3969,-0.4022,-0.4061,-0.4124,-0.4186,-0.4233,-0.4308,-0.4366,-0.4394,-0.4404,-0.4465,-0.4459,-0.4456,-0.4461,-0.4494,-0.4493,-0.4493,-0.4494,-0.4494,-0.4494,0,0,-0.3637,-0.3691,-0.3734,-0.3785,-0.3864,-0.3915,-0.3925,-0.4014,-0.4048,-0.4111,-0.416,-0.4207,-0.4304,-0.4356,-0.4395,-0.4411,-0.4445,-0.4428,-0.4414,-0.4444,-0.4444,-0.4444,-0.4451,-0.4452,-0.443,-0.443,-0.443,0,-0.3607,-0.3688,-0.3751,-0.3802,-0.3843,-0.3902,-0.3946,-0.3993,-0.4086,-0.4113,-0.4123,-0.4247,-0.4301,-0.4372,-0.4376,-0.4405,-0.4419,-0.4419,-0.4439,-0.444,-0.4441,-0.4448,-0.445,-0.4428,-0.4428,-0.4428,-0.4429,0,-0.3648,-0.3703,-0.3727,-0.3817,-0.3861,-0.3907,-0.3978,-0.4014,-0.4051,-0.41,-0.4164,-0.4231,-0.4304,-0.4324,-0.436,-0.44,-0.4404,-0.4425,-0.4442,-0.4437,-0.4445,-0.4448,-0.4424,-0.4425,-0.4426,-0.4426,0,0,-0.361,-0.3733,-0.3741,-0.3782,-0.3873,-0.3917,-0.3966,-0.4037,-0.4068,-0.4129,-0.4173,-0.4254,-0.4274,-0.4318,-0.436,-0.4387,-0.4396,-0.4405,-0.4408,-0.4402,-0.4444,-0.4429,-0.4431,-0.4419,-0.4419,-0.442,-0.4438,0,-0.3621,-0.3713,-0.3771,-0.3839,-0.3891,-0.3947,-0.399,-0.405,-0.4097,-0.4147,-0.4199,-0.4255,-0.4277,-0.4304,-0.4333,-0.4389,-0.4406,-0.4388,-0.446,-0.4462,-0.4441,-0.4435,-0.4419,-0.4433,-0.4442,-0.4442,-0.4443,0,-0.3648,-0.3709,-0.3782,-0.3867,-0.3891,-0.3929,-0.3999,-0.4046,-0.4115,-0.4147,-0.4196,-0.4239,-0.4293,-0.4304,-0.4379,-0.4365,-0.4398,-0.4429,-0.4431,-0.4442,-0.4453,-0.4446,-0.4439,-0.4441,-0.4448,-0.4448,-0.4447,0,-0.3613,-0.3714,-0.3771,-0.3804,-0.3905,-0.393,-0.3973,-0.4042,-0.4081,-0.4142,-0.4168,-0.4234,-0.427,-0.432,-0.438,-0.4382,-0.4449,-0.4465,-0.4477,-0.4476,-0.449,-0.4488,-0.4489,-0.4508,-0.4508,-0.4508,-0.4508,0,-0.3621,-0.3664,-0.3757,-0.3792,-0.3842,-0.3908,-0.3955,-0.4002,-0.4063,-0.4108,-0.416,-0.4201,-0.4276,-0.4327,-0.4373,-0.4428,-0.4444,-0.4472,-0.4484,-0.4468,-0.4465,-0.4491,-0.4492,-0.4509,-0.4509,-0.4509,-0.4509,0,-0.3592,-0.3656,-0.3722,-0.3812,-0.3835,-0.3868,-0.3945,-0.3981,-0.403,-0.4086,-0.4103,-0.418,-0.4242,-0.4306,-0.4389,-0.4421,-0.4475,-0.4491,-0.4451,-0.4459,-0.4468,-0.4466,-0.4487,-0.4493,-0.4506,-0.4506,-0.4506,0,-0.3594,-0.3628,-0.3722,-0.3756,-0.3798,-0.3852,-0.3892,-0.3958,-0.3997,-0.4078,-0.4104,-0.417,-0.4226,-0.4322,-0.4385,-0.4449,-0.4468,-0.4471,-0.4478,-0.4461,-0.4469,-0.4467,-0.4471,-0.4468,-0.4468,-0.4468,-0.4467,0,-0.359,-0.362,-0.3676,-0.3743,-0.379,-0.3846,-0.3904,-0.3929,-0.4006,-0.4047,-0.4112,-0.4155,-0.424,-0.4305,-0.4376,-0.442,-0.4456,-0.4464,-0.4471,-0.4455,-0.4432,-0.4446,-0.4446,-0.4464,-0.4464,-0.4464,-0.4465,-0.4465,-0.3577,-0.3611,-0.3681,-0.3743,-0.3793,-0.3846,-0.3884,-0.3938,-0.3993,-0.4068,-0.4103,-0.4167,-0.4234,-0.4334,-0.4377,-0.4428,-0.4438,-0.4447,-0.445,-0.4451,-0.4448,-0.4422,-0.4441,-0.4441,-0.4441,-0.4441,-0.4441,0,-0.3577,-0.3625,-0.3681,-0.376,-0.3808,-0.3838,-0.3903,-0.3941,-0.3997,-0.4057,-0.4112,-0.4185,-0.4247,-0.4315,-0.4382,-0.4409,-0.4428,-0.4425,-0.4424,-0.4434,-0.4434,-0.4423,-0.4409,-0.4409,-0.4409,-0.4409,-0.4409,-0.4409,-0.3583,-0.3641,-0.3679,-0.3762,-0.381,-0.3874,-0.3909,-0.3957,-0.4006,-0.4086,-0.4138,-0.4182,-0.4245,-0.4317,-0.4375,-0.4393,-0.4416,-0.4408,-0.4431,-0.4431,-0.4433,-0.4436,-0.4425,-0.4412,-0.4412,-0.4427,-0.4427,-0.4427]}]]